Time,TemperatureF,DewpointF,PressureIn,WindDirection,WindDirectionDegrees,WindSpeedMPH,WindSpeedGustMPH,Humidity,HourlyPrecipIn,Conditions,Clouds,dailyrainin,SoftwareType,DateUTC
2013-02-17 00:02:00,27.0,23.0,29.72,ESE,113,0.0,0.0,83,0.00,,,0.00,,2013-02-17 05:02:00,
2013-02-17 00:12:00,27.0,23.0,29.71,North,0,0.0,0.0,83,0.00,,,0.00,,2013-02-17 05:12:00,
2013-02-17 00:22:00,27.0,23.0,29.71,North,0,0.0,0.0,83,0.00,,,0.00,,2013-02-17 05:22:00,
2013-02-17 00:33:00,27.0,23.0,29.70,NNE,23,0.0,0.0,84,0.00,,,0.00,,2013-02-17 05:33:00,
2013-02-17 00:42:00,27.0,23.0,29.70,NNE,23,0.0,0.0,84,0.00,,,0.00,,2013-02-17 05:42:00,
2013-02-17 00:52:00,26.0,22.0,29.69,NE,45,0.0,0.0,85,0.00,,,0.00,,2013-02-17 05:52:00,
2013-02-17 01:02:00,26.0,22.0,29.67,NE,45,0.0,0.0,85,0.00,,,0.00,,2013-02-17 06:02:00,
2013-02-17 01:11:00,26.0,22.0,29.67,NE,45,0.0,0.0,85,0.00,,,0.00,,2013-02-17 06:11:00,
2013-02-17 01:21:00,26.0,22.0,29.65,NNW,338,0.0,0.0,85,0.00,,,0.00,,2013-02-17 06:21:00,
2013-02-17 01:31:00,26.0,22.0,29.65,NE,45,0.0,0.0,86,0.00,,,0.00,,2013-02-17 06:31:00,
2013-02-17 01:42:00,26.0,22.0,29.65,NE,45,0.0,0.0,86,0.00,,,0.00,,2013-02-17 06:42:00,
2013-02-17 01:52:00,25.0,21.0,29.64,North,0,0.0,0.0,85,0.00,,,0.00,,2013-02-17 06:52:00,
2013-02-17 02:01:00,25.0,21.0,29.63,North,0,0.0,0.0,85,0.00,,,0.00,,2013-02-17 07:01:00,
2013-02-17 02:11:00,25.0,21.0,29.64,North,0,0.0,0.0,84,0.00,,,0.00,,2013-02-17 07:11:00,
2013-02-17 02:21:00,25.0,21.0,29.64,North,0,0.0,0.0,84,0.00,,,0.00,,2013-02-17 07:21:00,
2013-02-17 02:32:00,25.0,21.0,29.63,North,0,0.0,0.0,84,0.00,,,0.00,,2013-02-17 07:32:00,
2013-02-17 02:42:00,25.0,21.0,29.63,North,0,0.0,0.0,84,0.00,,,0.00,,2013-02-17 07:42:00,
2013-02-17 02:52:00,25.0,20.0,29.62,NNW,338,0.0,0.0,81,0.00,,,0.00,,2013-02-17 07:52:00,
2013-02-17 03:01:00,25.0,19.0,29.59,North,0,0.0,0.0,79,0.00,,,0.00,,2013-02-17 08:01:00,
2013-02-17 03:11:00,25.0,19.0,29.59,North,0,0.0,0.0,79,0.00,,,0.00,,2013-02-17 08:11:00,
2013-02-17 03:21:00,25.0,20.0,29.58,NNE,23,0.0,0.0,80,0.00,,,0.00,,2013-02-17 08:21:00,
2013-02-17 03:32:00,24.0,19.0,29.58,North,0,0.0,0.0,81,0.00,,,0.00,,2013-02-17 08:32:00,
2013-02-17 03:42:00,24.0,19.0,29.58,North,0,0.0,0.0,81,0.00,,,0.00,,2013-02-17 08:42:00,
2013-02-17 03:52:00,24.0,19.0,29.57,North,0,0.0,0.0,82,0.00,,,0.00,,2013-02-17 08:52:00,
2013-02-17 04:02:00,24.0,20.0,29.55,North,0,0.0,0.0,84,0.00,,,0.00,,2013-02-17 09:02:00,
2013-02-17 04:11:00,24.0,20.0,29.55,North,0,0.0,0.0,84,0.00,,,0.00,,2013-02-17 09:11:00,
2013-02-17 04:21:00,23.0,19.0,29.54,North,0,0.0,0.0,85,0.00,,,0.00,,2013-02-17 09:21:00,
2013-02-17 04:31:00,23.0,19.0,29.54,North,0,0.0,0.0,86,0.00,,,0.00,,2013-02-17 09:31:00,
2013-02-17 04:42:00,23.0,19.0,29.54,North,0,0.0,0.0,86,0.00,,,0.00,,2013-02-17 09:42:00,
2013-02-17 04:51:00,23.0,19.0,29.53,NNE,23,0.0,0.0,86,0.00,,,0.00,,2013-02-17 09:51:00,
2013-02-17 05:01:00,23.0,19.0,29.52,North,0,0.0,0.0,86,0.00,,,0.00,,2013-02-17 10:01:00,
2013-02-17 05:11:00,23.0,19.0,29.49,NNE,23,0.0,0.0,85,0.00,,,0.00,,2013-02-17 10:11:00,
2013-02-17 05:21:00,23.0,19.0,29.49,NNE,23,0.0,0.0,85,0.00,,,0.00,,2013-02-17 10:21:00,
2013-02-17 05:32:00,23.0,19.0,29.47,NNE,23,0.0,0.0,84,0.00,,,0.00,,2013-02-17 10:32:00,
2013-02-17 05:42:00,23.0,19.0,29.47,NNE,23,0.0,0.0,84,0.00,,,0.00,,2013-02-17 10:42:00,
2013-02-17 05:52:00,23.0,19.0,29.46,NE,45,0.0,0.0,83,0.00,,,0.00,,2013-02-17 10:52:00,
2013-02-17 06:01:00,24.0,20.0,29.45,ENE,68,0.0,0.0,83,0.00,,,0.00,,2013-02-17 11:01:00,
2013-02-17 06:11:00,24.0,20.0,29.45,ENE,68,0.0,0.0,83,0.00,,,0.00,,2013-02-17 11:11:00,
2013-02-17 06:21:00,23.0,19.0,29.45,North,0,0.0,0.0,83,0.00,,,0.00,,2013-02-17 11:21:00,
2013-02-17 06:32:00,24.0,19.0,29.43,North,0,0.0,0.0,82,0.00,,,0.00,,2013-02-17 11:32:00,
2013-02-17 06:42:00,24.0,19.0,29.43,North,0,0.0,0.0,82,0.00,,,0.00,,2013-02-17 11:42:00,
2013-02-17 06:52:00,24.0,19.0,29.41,North,0,0.0,0.0,82,0.00,,,0.00,,2013-02-17 11:52:00,
2013-02-17 07:03:00,24.0,19.0,29.40,NNE,23,0.0,0.0,82,0.00,,,0.00,,2013-02-17 12:03:00,
2013-02-17 07:11:00,24.0,19.0,29.40,NNE,23,0.0,0.0,82,0.00,,,0.00,,2013-02-17 12:11:00,
2013-02-17 07:22:00,24.0,20.0,29.38,North,0,0.0,0.0,83,0.00,,,0.00,,2013-02-17 12:22:00,
2013-02-17 07:32:00,24.0,20.0,29.36,North,0,0.0,0.0,83,0.00,,,0.00,,2013-02-17 12:32:00,
2013-02-17 07:42:00,24.0,20.0,29.36,North,0,0.0,0.0,83,0.00,,,0.00,,2013-02-17 12:42:00,
2013-02-17 07:52:00,24.0,20.0,29.35,North,0,0.0,0.0,83,0.00,,,0.00,,2013-02-17 12:52:00,
2013-02-17 08:02:00,24.0,19.0,29.34,NNW,338,0.0,0.0,82,0.00,,,0.00,,2013-02-17 13:02:00,
2013-02-17 08:12:00,24.0,19.0,29.34,NNW,338,0.0,0.0,82,0.00,,,0.00,,2013-02-17 13:12:00,
2013-02-17 08:22:00,24.0,19.0,29.33,North,0,0.0,0.0,82,0.00,,,0.00,,2013-02-17 13:22:00,
2013-02-17 08:32:00,25.0,20.0,29.31,North,0,0.0,0.0,81,0.00,,,0.00,,2013-02-17 13:32:00,
2013-02-17 08:42:00,25.0,20.0,29.31,North,0,0.0,0.0,81,0.00,,,0.00,,2013-02-17 13:42:00,
2013-02-17 08:52:00,25.0,20.0,29.29,North,0,0.0,0.0,81,0.00,,,0.00,,2013-02-17 13:52:00,
2013-02-17 09:01:00,25.0,20.0,29.27,North,0,0.0,0.0,81,0.00,,,0.00,,2013-02-17 14:01:00,
2013-02-17 09:11:00,25.0,20.0,29.27,North,0,0.0,0.0,81,0.00,,,0.00,,2013-02-17 14:11:00,
2013-02-17 09:22:00,25.0,20.0,29.26,NNE,23,0.0,0.0,82,0.00,,,0.00,,2013-02-17 14:22:00,
2013-02-17 09:32:00,24.0,20.0,29.25,North,0,0.0,0.0,84,0.00,,,0.00,,2013-02-17 14:32:00,
2013-02-17 09:42:00,24.0,20.0,29.25,North,0,0.0,0.0,84,0.00,,,0.00,,2013-02-17 14:42:00,
2013-02-17 09:53:00,24.0,20.0,29.24,NNW,338,0.0,0.0,85,0.00,,,0.00,,2013-02-17 14:53:00,
2013-02-17 10:02:00,24.0,20.0,29.22,North,0,0.0,0.0,85,0.00,,,0.00,,2013-02-17 15:02:00,
2013-02-17 10:11:00,24.0,20.0,29.22,North,0,0.0,0.0,85,0.00,,,0.00,,2013-02-17 15:11:00,
2013-02-17 10:21:00,24.0,20.0,29.21,North,0,0.0,0.0,85,0.00,,,0.00,,2013-02-17 15:21:00,
2013-02-17 10:32:00,24.0,20.0,29.20,North,0,0.0,0.0,86,0.00,,,0.00,,2013-02-17 15:32:00,
2013-02-17 10:42:00,24.0,20.0,29.20,North,0,0.0,0.0,86,0.00,,,0.00,,2013-02-17 15:42:00,
2013-02-17 10:52:00,24.0,20.0,29.18,North,0,0.0,0.0,85,0.00,,,0.00,,2013-02-17 15:52:00,
2013-02-17 11:01:00,24.0,20.0,29.17,North,0,0.0,0.0,84,0.00,,,0.00,,2013-02-17 16:01:00,
2013-02-17 11:12:00,24.0,20.0,29.17,North,0,0.0,0.0,84,0.00,,,0.00,,2013-02-17 16:12:00,
2013-02-17 11:21:00,24.0,20.0,29.15,North,0,0.0,0.0,84,0.00,,,0.00,,2013-02-17 16:21:00,
2013-02-17 11:32:00,24.0,20.0,29.14,North,0,0.0,0.0,84,0.00,,,0.00,,2013-02-17 16:32:00,
2013-02-17 11:42:00,24.0,20.0,29.14,North,0,0.0,0.0,84,0.00,,,0.00,,2013-02-17 16:42:00,
2013-02-17 11:52:00,24.0,20.0,29.12,North,0,0.0,0.0,84,0.00,,,0.00,,2013-02-17 16:52:00,
2013-02-17 12:02:00,24.0,20.0,29.10,NW,315,0.0,0.0,83,0.00,,,0.00,,2013-02-17 17:02:00,
2013-02-17 12:11:00,24.0,20.0,29.10,NW,315,0.0,0.0,83,0.00,,,0.00,,2013-02-17 17:11:00,
2013-02-17 12:21:00,24.0,20.0,29.08,NNW,338,0.0,0.0,83,0.00,,,0.00,,2013-02-17 17:21:00,
2013-02-17 12:32:00,24.0,19.0,29.07,North,0,0.0,0.0,82,0.00,,,0.00,,2013-02-17 17:32:00,
2013-02-17 12:42:00,24.0,19.0,29.07,North,0,0.0,0.0,82,0.00,,,0.00,,2013-02-17 17:42:00,
2013-02-17 12:52:00,25.0,20.0,29.05,NNW,338,0.0,0.0,81,0.00,,,0.00,,2013-02-17 17:52:00,
2013-02-17 13:02:00,25.0,20.0,29.05,NNW,338,0.0,0.0,81,0.00,,,0.00,,2013-02-17 18:02:00,
2013-02-17 13:11:00,25.0,20.0,29.05,NNW,338,0.0,0.0,81,0.00,,,0.00,,2013-02-17 18:11:00,
2013-02-17 13:22:00,24.0,19.0,29.04,NW,315,0.0,0.0,81,0.00,,,0.00,,2013-02-17 18:22:00,
2013-02-17 13:33:00,24.0,19.0,29.04,NW,315,0.0,0.0,81,0.00,,,0.00,,2013-02-17 18:33:00,
2013-02-17 13:42:00,24.0,19.0,29.04,NW,315,0.0,0.0,81,0.00,,,0.00,,2013-02-17 18:42:00,
2013-02-17 13:52:00,24.0,19.0,29.05,North,0,0.0,0.0,80,0.00,,,0.00,,2013-02-17 18:52:00,
2013-02-17 14:01:00,23.0,18.0,29.05,NW,315,0.0,0.0,80,0.00,,,0.00,,2013-02-17 19:01:00,
2013-02-17 14:11:00,23.0,18.0,29.05,NW,315,0.0,0.0,80,0.00,,,0.00,,2013-02-17 19:11:00,
2013-02-17 14:22:00,23.0,18.0,29.04,North,0,0.0,0.0,81,0.00,,,0.00,,2013-02-17 19:22:00,
2013-02-17 14:32:00,23.0,18.0,29.05,North,0,0.0,0.0,81,0.00,,,0.00,,2013-02-17 19:32:00,
2013-02-17 14:42:00,23.0,18.0,29.05,North,0,0.0,0.0,81,0.00,,,0.00,,2013-02-17 19:42:00,
2013-02-17 14:52:00,23.0,18.0,29.04,North,0,0.0,0.0,82,0.00,,,0.00,,2013-02-17 19:52:00,
2013-02-17 15:02:00,23.0,18.0,29.05,North,0,0.0,0.0,81,0.00,,,0.00,,2013-02-17 20:02:00,
2013-02-17 15:11:00,23.0,18.0,29.05,North,0,0.0,0.0,81,0.00,,,0.00,,2013-02-17 20:11:00,
2013-02-17 15:22:00,23.0,18.0,29.05,North,0,0.0,0.0,81,0.00,,,0.00,,2013-02-17 20:22:00,
2013-02-17 15:32:00,23.0,18.0,29.05,North,0,0.0,0.0,81,0.00,,,0.00,,2013-02-17 20:32:00,
2013-02-17 15:42:00,23.0,18.0,29.05,North,0,0.0,0.0,81,0.00,,,0.00,,2013-02-17 20:42:00,
2013-02-17 15:52:00,23.0,18.0,29.06,North,0,0.0,0.0,81,0.00,,,0.00,,2013-02-17 20:52:00,
2013-02-17 16:02:00,23.0,18.0,29.07,NNW,338,0.0,0.0,80,0.00,,,0.00,,2013-02-17 21:02:00,
2013-02-17 16:11:00,23.0,18.0,29.07,NNW,338,0.0,0.0,80,0.00,,,0.00,,2013-02-17 21:11:00,
2013-02-17 16:21:00,22.0,17.0,29.07,NW,315,0.0,0.0,80,0.00,,,0.00,,2013-02-17 21:21:00,
2013-02-17 16:32:00,22.0,18.0,29.08,North,0,0.0,0.0,83,0.00,,,0.00,,2013-02-17 21:32:00,
2013-02-17 16:42:00,22.0,18.0,29.08,North,0,0.0,0.0,83,0.00,,,0.00,,2013-02-17 21:42:00,
2013-02-17 16:53:00,21.0,17.0,29.09,North,0,0.0,0.0,85,0.00,,,0.00,,2013-02-17 21:53:00,
2013-02-17 17:01:00,21.0,17.0,29.10,NW,315,0.0,0.0,86,0.00,,,0.00,,2013-02-17 22:01:00,
2013-02-17 17:12:00,21.0,17.0,29.10,NW,315,0.0,0.0,86,0.00,,,0.00,,2013-02-17 22:12:00,
2013-02-17 17:22:00,21.0,17.0,29.11,NNW,338,0.0,0.0,86,0.00,,,0.00,,2013-02-17 22:22:00,
2013-02-17 17:32:00,21.0,17.0,29.12,North,0,0.0,0.0,86,0.00,,,0.00,,2013-02-17 22:32:00,
2013-02-17 17:42:00,21.0,17.0,29.12,North,0,0.0,0.0,86,0.00,,,0.00,,2013-02-17 22:42:00,
2013-02-17 17:52:00,21.0,17.0,29.13,NNW,338,0.0,0.0,84,0.00,,,0.00,,2013-02-17 22:52:00,
2013-02-17 18:02:00,22.0,17.0,29.14,NNW,338,0.0,0.0,82,0.00,,,0.00,,2013-02-17 23:02:00,
2013-02-17 18:11:00,22.0,17.0,29.14,NNW,338,0.0,0.0,82,0.00,,,0.00,,2013-02-17 23:11:00,
2013-02-17 18:21:00,22.0,17.0,29.15,WNW,293,0.0,0.0,81,0.00,,,0.00,,2013-02-17 23:21:00,
2013-02-17 18:32:00,21.0,16.0,29.15,NNW,338,0.0,0.0,80,0.00,,,0.00,,2013-02-17 23:32:00,
2013-02-17 18:42:00,21.0,16.0,29.15,NNW,338,0.0,0.0,80,0.00,,,0.00,,2013-02-17 23:42:00,
2013-02-17 18:52:00,20.0,14.0,29.17,NW,315,0.0,0.0,78,0.00,,,0.00,,2013-02-17 23:52:00,
2013-02-17 19:01:00,20.0,14.0,29.17,NNW,338,0.0,0.0,77,0.00,,,0.00,,2013-02-18 00:01:00,
2013-02-17 19:12:00,20.0,14.0,29.17,NNW,338,0.0,0.0,77,0.00,,,0.00,,2013-02-18 00:12:00,
2013-02-17 19:22:00,20.0,14.0,29.18,NW,315,0.0,0.0,77,0.00,,,0.00,,2013-02-18 00:22:00,
2013-02-17 19:32:00,19.0,13.0,29.19,NNW,338,0.0,0.0,78,0.00,,,0.00,,2013-02-18 00:32:00,
2013-02-17 19:41:00,19.0,13.0,29.19,NNW,338,0.0,0.0,78,0.00,,,0.00,,2013-02-18 00:41:00,
2013-02-17 19:52:00,19.0,13.0,29.19,NW,315,0.0,0.0,78,0.00,,,0.00,,2013-02-18 00:52:00,
2013-02-17 20:01:00,20.0,14.0,29.20,North,0,0.0,0.0,78,0.00,,,0.00,,2013-02-18 01:01:00,
2013-02-17 20:12:00,20.0,14.0,29.20,North,0,0.0,0.0,78,0.00,,,0.00,,2013-02-18 01:12:00,
2013-02-17 20:21:00,20.0,14.0,29.20,NNW,338,0.0,0.0,77,0.00,,,0.00,,2013-02-18 01:21:00,
2013-02-17 20:32:00,20.0,13.0,29.21,NW,315,0.0,0.0,74,0.00,,,0.00,,2013-02-18 01:32:00,
2013-02-17 20:42:00,20.0,13.0,29.21,NW,315,0.0,0.0,74,0.00,,,0.00,,2013-02-18 01:42:00,
2013-02-17 20:52:00,20.0,13.0,29.22,NNW,338,0.0,0.0,73,0.00,,,0.00,,2013-02-18 01:52:00,
2013-02-17 21:02:00,21.0,13.0,29.22,NW,315,0.0,0.0,71,0.00,,,0.00,,2013-02-18 02:02:00,
2013-02-17 21:11:00,21.0,13.0,29.22,NW,315,0.0,0.0,71,0.00,,,0.00,,2013-02-18 02:11:00,
2013-02-17 21:22:00,21.0,12.0,29.23,NNW,338,0.0,0.0,69,0.00,,,0.00,,2013-02-18 02:22:00,
2013-02-17 21:32:00,21.0,12.0,29.24,NNW,338,0.0,0.0,68,0.00,,,0.00,,2013-02-18 02:32:00,
2013-02-17 21:42:00,21.0,12.0,29.24,NNW,338,0.0,0.0,68,0.00,,,0.00,,2013-02-18 02:42:00,
2013-02-17 21:52:00,21.0,12.0,29.25,NW,315,0.0,0.0,67,0.00,,,0.00,,2013-02-18 02:52:00,
2013-02-17 22:02:00,21.0,11.0,29.26,NW,315,0.0,0.0,66,0.00,,,0.00,,2013-02-18 03:02:00,
2013-02-17 22:11:00,21.0,11.0,29.26,NW,315,0.0,0.0,66,0.00,,,0.00,,2013-02-18 03:11:00,
2013-02-17 22:21:00,21.0,11.0,29.26,North,0,0.0,0.0,66,0.00,,,0.00,,2013-02-18 03:21:00,
2013-02-17 22:32:00,21.0,12.0,29.27,NW,315,0.0,0.0,67,0.00,,,0.00,,2013-02-18 03:32:00,
2013-02-17 22:42:00,21.0,12.0,29.27,NW,315,0.0,0.0,67,0.00,,,0.00,,2013-02-18 03:42:00,
2013-02-17 22:52:00,21.0,11.0,29.28,NW,315,0.0,0.0,66,0.00,,,0.00,,2013-02-18 03:52:00,
2013-02-17 23:01:00,21.0,11.0,29.29,NNW,338,0.0,0.0,65,0.00,,,0.00,,2013-02-18 04:01:00,
2013-02-17 23:11:00,21.0,11.0,29.29,NNW,338,0.0,0.0,65,0.00,,,0.00,,2013-02-18 04:11:00,
2013-02-17 23:21:00,21.0,12.0,29.29,NW,315,0.0,0.0,67,0.00,,,0.00,,2013-02-18 04:21:00,
2013-02-17 23:32:00,21.0,11.0,29.30,NNW,338,0.0,0.0,66,0.00,,,0.00,,2013-02-18 04:32:00,
2013-02-17 23:42:00,21.0,11.0,29.30,NNW,338,0.0,0.0,66,0.00,,,0.00,,2013-02-18 04:42:00,
2013-02-17 23:52:00,21.0,11.0,29.31,NNW,338,0.0,0.0,66,0.00,,,0.00,,2013-02-18 04:52:00,